Sanderson, TX

3:37 AM CST on February 11, 2016 (GMT -0600)
Dryden

Weather History for K6R6 - September, 2012

Change the Weather History Date:

Tuesday, September 11, 2012

  Actual Average (KFST) Record (KFST)
Temperature  
Mean Temperature 80 °F -  
Max Temperature 96 °F 88 °F 100 °F (2000)
Min Temperature 66 °F 65 °F 60 °F (2007)
Cooling Degree Days 16    
Growing Degree Days 30 (Base 50)    
Moisture  
Dew Point 45 °F    
Average Humidity 29    
Maximum Humidity 46    
Minimum Humidity 17    
Precipitation  
Precipitation 0.00 in - - ()
Sea Level Pressure  
Sea Level Pressure 29.90 in    
Wind  
Wind Speed 8 mph (East)    
Max Wind Speed 16 mph    
Max Gust Speed 23 mph    
Averages and records for this station are not official NWS values.
T = Trace of Precipitation, MM = Missing Value Source: NWS Daily Summary

Daily Weather History Graph

Daily Weather History Graph

Search for Another Location

Airport or City:

Trip Planner

Search our weather history database for the weather conditions in past years. The results will help you decide how hot, cold, wet, or windy it might be!

Date:

Astronomy

Sep. 11, 2012 Rise Set
Actual Time 7:31 AM CDT 7:58 PM CDT
Civil Twilight 7:07 AM CDT 8:22 PM CDT
Nautical Twilight 6:39 AM CDT 8:50 PM CDT
Astronomical Twilight 6:10 AM CDT 9:19 PM CDT
Moon 3:06 AM CDT 4:56 PM CDT
Length of Visible Light 13h 15m
Length of Day
12h 26m
Waning Crescent, 21% of the Moon is Illuminated
Sep 11
Waning Crescent
Sep 15
New
Sep 22
First Quarter
Sep 29
Full
Oct 8
Last Quarter

Hourly Weather History & Observations

Time (CDT) Temp. Dew Point Humidity Pressure Visibility Wind Dir Wind Speed Gust Speed Precip Events Conditions
12:53 AM 75.0 °F 37.9 °F 26% 29.94 in - ENE 8.1 mph - N/A   Unknown
1:53 AM 75.9 °F 39.0 °F 26% 29.92 in - East 8.1 mph - N/A   Unknown
2:53 AM 75.0 °F 39.0 °F 27% 29.91 in - East 6.9 mph - N/A   Unknown
3:53 AM 73.9 °F 39.9 °F 29% 29.90 in - East 6.9 mph - N/A   Unknown
4:53 AM 72.0 °F 41.0 °F 33% 29.90 in - East 3.5 mph - N/A   Unknown
5:53 AM 68.0 °F 41.0 °F 37% 29.92 in - North 6.9 mph - N/A   Unknown
6:53 AM 66.9 °F 42.1 °F 40% 29.93 in - NNE 9.2 mph - N/A   Unknown
7:53 AM 66.9 °F 44.1 °F 44% 29.95 in - NNE 6.9 mph - N/A   Unknown
8:53 AM 72.0 °F 50.0 °F 46% 29.97 in - ENE 5.8 mph - N/A   Unknown
9:53 AM 75.9 °F 53.1 °F 45% 29.97 in - East 8.1 mph - N/A   Unknown
10:53 AM 80.1 °F 52.0 °F 38% 29.98 in - ESE 8.1 mph - N/A   Unknown
11:53 AM 84.9 °F 51.1 °F 31% 29.97 in - Variable 6.9 mph - N/A   Unknown
12:53 PM 87.1 °F 50.0 °F 28% 29.95 in - Variable 6.9 mph - N/A   Unknown
1:53 PM 90.0 °F 50.0 °F 25% 29.91 in - ESE 11.5 mph - N/A   Unknown
2:53 PM 95.0 °F 46.9 °F 19% 29.88 in - SE 8.1 mph - N/A   Unknown
3:53 PM 95.0 °F 46.9 °F 19% 29.85 in - ESE 11.5 mph - N/A   Unknown
4:53 PM 95.0 °F 45.0 °F 18% 29.83 in - East 11.5 mph 19.6 mph N/A   Unknown
5:53 PM 95.0 °F 43.0 °F 17% 29.83 in - ESE 11.5 mph 19.6 mph N/A   Unknown
6:53 PM 93.0 °F 43.0 °F 18% 29.83 in - ESE 16.1 mph - N/A   Unknown
7:53 PM 89.1 °F 45.0 °F 22% 29.84 in - ESE 16.1 mph 23.0 mph N/A   Unknown
8:53 PM 84.9 °F 46.9 °F 27% 29.86 in - East 8.1 mph - N/A   Unknown
9:53 PM 82.9 °F 46.9 °F 28% 29.88 in - ESE 8.1 mph - N/A   Unknown
10:53 PM 82.9 °F 46.9 °F 28% 29.89 in - ESE 13.8 mph - N/A   Unknown
11:53 PM 81.0 °F 46.9 °F 30% 29.89 in - East 11.5 mph - N/A   Unknown